URO900 EGHH-ZWWW

Flight info

Callsign URO900
Flight time N/A
Altitude 35000
Route GWC N16 OTSID DCT PAWDE P2 DVR UL9 KONAN UL607 MATUG DCT GUBAX DCT OSDUR DCT OSBIT L984 KOMIB DCT TONSU Z650 NOGRA DCT ETVIS DCT PEMEL DCT NELPA DCT TABEM DCT LIKSA DCT MAVOR DCT TURIS DCT PATAK DCT NIPUR DCT ADUKU DCT BUKAN DCT RUSAG DCT LEBAT DCT DENAK DCT DIRAL DCT FTS DCT VAKIS DCT UDROS UM859 KARDE UN644 ROLIN N644 LAGAS/N0475F370 M747 SUBUT T923 ERLEV DCT NIJAT DCT METKA B476 DARVA/K0883F370 T898 OGOLI N193 SR DCT TISIB L141 KAMUD/K0882S1130 A468 XKC B215 EPDAG EPDAG9Z
Aircraft A346/H-SDE2E3FGHIJ3J4J5M1RWXY/LB1D1

Departure

Time 2026-04-27 10:46
Airport Bournemouth Airport (EGHH)

Arrival

Time N/A
Airport Ürümqi Tianshan International Airport (ZWWW)
Time Latitude Longitude Altitude Speed Heading
2026-04-27 10:29 50.78606 -1.84236 48 ft 0 kts 255°
2026-04-27 10:34 50.78607 -1.84234 48 ft 2 kts 255°
2026-04-27 10:35 50.78612 -1.84194 46 ft 4 kts 261°
2026-04-27 10:35 50.78615 -1.84171 46 ft 4 kts 244°
2026-04-27 10:35 50.78624 -1.84156 46 ft 4 kts 215°
2026-04-27 10:35 50.78644 -1.84142 46 ft 4 kts 184°
2026-04-27 10:36 50.78668 -1.84147 46 ft 4 kts 164°
2026-04-27 10:36 50.78684 -1.84154 46 ft 0 kts 166°
2026-04-27 10:39 50.78683 -1.84154 54 ft 0 kts 166°
2026-04-27 10:40 50.78613 -1.84124 53 ft 18 kts 165°
2026-04-27 10:40 50.78453 -1.84058 48 ft 29 kts 165°
2026-04-27 10:40 50.78229 -1.83967 53 ft 36 kts 166°
2026-04-27 10:41 50.78097 -1.83920 53 ft 10 kts 187°
2026-04-27 10:41 50.78048 -1.84018 49 ft 15 kts 252°
2026-04-27 10:41 50.77995 -1.84325 47 ft 42 kts 255°
2026-04-27 10:41 50.77920 -1.84777 54 ft 41 kts 255°
2026-04-27 10:42 50.77851 -1.85194 55 ft 38 kts 256°
2026-04-27 10:42 50.77784 -1.85593 49 ft 35 kts 254°
2026-04-27 10:42 50.77743 -1.85691 52 ft 6 kts 217°
2026-04-27 10:42 50.77722 -1.85747 48 ft 5 kts 284°
2026-04-27 10:43 50.77754 -1.85755 46 ft 6 kts 55°
2026-04-27 10:43 50.77758 -1.85735 49 ft 0 kts 72°
2026-04-27 10:43 50.77758 -1.85734 49 ft 0 kts 72°
2026-04-27 10:45 50.77759 -1.85734 49 ft 0 kts 72°
2026-04-27 10:45 50.77774 -1.85655 52 ft 36 kts 74°
2026-04-27 10:45 50.77912 -1.84829 53 ft 116 kts 75°
2026-04-27 10:46 50.78172 -1.83244 114 ft 172 kts 74°
2026-04-27 10:46 50.78421 -1.81421 972 ft 169 kts 77°
2026-04-27 10:46 50.78680 -1.79617 1769 ft 168 kts 76°
2026-04-27 10:46 50.78876 -1.77749 2227 ft 179 kts 83°
2026-04-27 10:47 50.78977 -1.75697 2599 ft 195 kts 83°
2026-04-27 10:47 50.79126 -1.73474 3070 ft 213 kts 83°
2026-04-27 10:47 50.79290 -1.71035 3528 ft 233 kts 83°
2026-04-27 10:47 50.79473 -1.68390 4084 ft 250 kts 83°
2026-04-27 10:48 50.79665 -1.65600 4799 ft 259 kts 83°
2026-04-27 10:48 50.79861 -1.62728 5621 ft 263 kts 82°
2026-04-27 10:48 50.80056 -1.59854 6437 ft 268 kts 82°
2026-04-27 10:48 50.80262 -1.56888 7199 ft 274 kts 82°
2026-04-27 10:49 50.80474 -1.53856 7966 ft 279 kts 82°
2026-04-27 10:49 50.80686 -1.50772 8724 ft 285 kts 82°
2026-04-27 10:49 50.80900 -1.47619 9483 ft 290 kts 82°
2026-04-27 10:49 50.81118 -1.44415 10257 ft 295 kts 83°
2026-04-27 10:50 50.81338 -1.41141 10874 ft 305 kts 83°
2026-04-27 10:50 50.81567 -1.37706 11282 ft 322 kts 83°
2026-04-27 10:50 50.81807 -1.34086 11636 ft 339 kts 83°
2026-04-27 10:50 50.82058 -1.30269 11974 ft 357 kts 83°
2026-04-27 10:51 50.82317 -1.26301 12310 ft 375 kts 83°
2026-04-27 10:51 50.82589 -1.22098 12683 ft 391 kts 84°
2026-04-27 10:51 50.82868 -1.17775 13352 ft 397 kts 84°
2026-04-27 10:51 50.83149 -1.13403 14135 ft 401 kts 84°
2026-04-27 10:52 50.83430 -1.08988 14809 ft 405 kts 84°
2026-04-27 10:52 50.83714 -1.04531 15493 ft 409 kts 84°
2026-04-27 10:52 50.83999 -1.00018 16149 ft 413 kts 84°
2026-04-27 10:52 50.84287 -0.95466 16816 ft 418 kts 84°
2026-04-27 10:53 50.84575 -0.90864 17465 ft 422 kts 84°
2026-04-27 10:53 50.85170 -0.81472 18661 ft 433 kts 82°
2026-04-27 10:53 50.85928 -0.76846 19176 ft 436 kts 66°
2026-04-27 10:54 50.87407 -0.72640 19762 ft 436 kts 52°
2026-04-27 10:54 50.89419 -0.69036 20394 ft 436 kts 44°
2026-04-27 10:54 50.91518 -0.65634 21013 ft 438 kts 43°
2026-04-27 10:54 50.93667 -0.62178 21562 ft 442 kts 44°
2026-04-27 10:55 50.95834 -0.58671 22100 ft 446 kts 44°
2026-04-27 10:55 50.98008 -0.55120 22651 ft 450 kts 44°
2026-04-27 10:55 51.00191 -0.51531 23187 ft 454 kts 44°
2026-04-27 10:55 51.02390 -0.47901 23720 ft 457 kts 44°
2026-04-27 10:56 51.04602 -0.44237 24183 ft 461 kts 44°
2026-04-27 10:56 51.06831 -0.40536 24609 ft 465 kts 44°
2026-04-27 10:56 51.09080 -0.36796 25048 ft 468 kts 44°
2026-04-27 10:56 51.11344 -0.33025 25480 ft 472 kts 44°
2026-04-27 10:57 51.13623 -0.29225 25899 ft 476 kts 45°
2026-04-27 10:57 51.15797 -0.25210 26316 ft 480 kts 51°
2026-04-27 10:57 51.17700 -0.20805 26739 ft 485 kts 57°
2026-04-27 10:57 51.19310 -0.16031 27156 ft 489 kts 63°
2026-04-27 10:58 51.20706 -0.11146 27565 ft 493 kts 65°
2026-04-27 10:58 51.22086 -0.06112 27954 ft 496 kts 65°
2026-04-27 10:58 51.23355 -0.00943 28330 ft 501 kts 72°
2026-04-27 10:58 51.24153 0.04488 28652 ft 506 kts 81°
2026-04-27 10:59 51.24419 0.10122 29009 ft 509 kts 91°
2026-04-27 10:59 51.24194 0.15801 29587 ft 507 kts 96°
2026-04-27 10:59 51.23830 0.21373 30237 ft 505 kts 97°
2026-04-27 11:00 51.23088 0.32467 31251 ft 504 kts 97°
2026-04-27 11:00 51.22737 0.38038 31736 ft 503 kts 97°
2026-04-27 11:00 51.22391 0.43588 32230 ft 502 kts 97°
2026-04-27 11:00 51.22045 0.49137 32717 ft 501 kts 97°
2026-04-27 11:01 51.21697 0.54676 33147 ft 501 kts 97°
2026-04-27 11:01 51.21345 0.60217 33558 ft 502 kts 97°
2026-04-27 11:01 51.20989 0.65770 33959 ft 503 kts 97°
2026-04-27 11:01 51.20628 0.71346 34329 ft 504 kts 97°
2026-04-27 11:02 51.20264 0.76924 34623 ft 505 kts 97°
2026-04-27 11:02 51.19896 0.82518 34930 ft 506 kts 97°
2026-04-27 11:02 51.19525 0.88114 35227 ft 507 kts 97°
2026-04-27 11:02 51.19152 0.93726 35298 ft 508 kts 97°
2026-04-27 11:03 51.18398 1.04969 35305 ft 510 kts 97°
2026-04-27 11:03 51.17629 1.16239 35307 ft 511 kts 97°
2026-04-27 11:04 51.16853 1.27442 35307 ft 511 kts 98°
2026-04-27 11:04 51.16120 1.38724 35304 ft 511 kts 96°
2026-04-27 11:05 51.15574 1.50043 35304 ft 512 kts 95°
2026-04-27 11:05 51.15032 1.61382 35295 ft 513 kts 96°
2026-04-27 11:06 51.14473 1.72715 35293 ft 513 kts 96°
2026-04-27 11:06 51.13900 1.84061 35284 ft 513 kts 96°
2026-04-27 11:07 51.13313 1.95395 35301 ft 513 kts 96°
2026-04-27 11:07 51.12735 2.06674 35301 ft 514 kts 96°
2026-04-27 11:08 51.12171 2.18051 35293 ft 514 kts 96°
2026-04-27 11:08 51.11596 2.29406 35287 ft 514 kts 96°
2026-04-27 11:09 51.11005 2.40762 35289 ft 514 kts 96°
2026-04-27 11:09 51.10402 2.52119 35284 ft 514 kts 96°
2026-04-27 11:10 51.09602 2.63447 35285 ft 513 kts 101°
2026-04-27 11:10 51.08042 2.74458 35279 ft 512 kts 108°
2026-04-27 11:11 51.06033 2.85339 35300 ft 512 kts 108°
2026-04-27 11:11 51.04005 2.96202 35291 ft 512 kts 108°
2026-04-27 11:12 51.01981 3.07061 35291 ft 512 kts 108°
2026-04-27 11:12 50.99949 3.17923 35281 ft 512 kts 108°
2026-04-27 11:13 50.97910 3.28764 35272 ft 512 kts 109°
2026-04-27 11:13 50.95873 3.39533 35268 ft 512 kts 109°
2026-04-27 11:14 50.93813 3.50367 35264 ft 512 kts 109°
2026-04-27 11:14 50.91743 3.61181 35261 ft 512 kts 109°
2026-04-27 11:15 50.89665 3.71989 35265 ft 512 kts 109°
2026-04-27 11:15 50.87577 3.82800 35272 ft 512 kts 109°
2026-04-27 11:16 50.85483 3.93587 35268 ft 512 kts 109°
2026-04-27 11:16 50.83371 4.04402 35275 ft 512 kts 109°
2026-04-27 11:17 50.81256 4.15174 35276 ft 512 kts 109°
2026-04-27 11:17 50.79143 4.25869 35262 ft 511 kts 109°
2026-04-27 11:18 50.77010 4.36608 35271 ft 511 kts 109°
2026-04-27 11:18 50.74868 4.47339 35277 ft 511 kts 109°
2026-04-27 11:19 50.72713 4.58066 35276 ft 511 kts 109°
2026-04-27 11:19 50.70603 4.68800 35270 ft 511 kts 109°
2026-04-27 11:20 50.68530 4.79552 35266 ft 512 kts 109°
2026-04-27 11:20 50.66451 4.90216 35267 ft 512 kts 109°
2026-04-27 11:21 50.64290 5.00912 35270 ft 511 kts 110°